{"data":{"norad_id":62663,"epoch":"2026-05-25T04:51:01.677600Z","epoch_age_seconds":50908,"freshness":"FRESH","line1":"1 62663U 25009BG  26145.20210275  .00008197  00000+0  28481-3 0  9996","line2":"2 62663  97.4026 227.6633 0004054  52.8227 307.3383 15.30000294 75420","mean_motion":15.30000294,"eccentricity":0.0004054,"inclination_deg":97.4026,"raan_deg":227.6633,"arg_perigee_deg":52.8227,"mean_anomaly_deg":307.3383,"bstar":0.00028481,"rev_number":7542,"period_min":94.117628973475,"perigee_km":473.03282970693,"apogee_km":478.59001108618,"semimajor_km":6853.9484203966,"source":"CELESTRAK","updated_at":"2026-05-25T13:38:13.341603Z"}}